This is the latest recevied weather packets stored in our database for station/object K3PPP. If no packets are shown the sender has not sent any weather packets the latest 10 day(s).
| Time | Temp. | Humidity | Pressure | Rain* | Wind** | Luminosity | Snow |
|---|---|---|---|---|---|---|---|
| 1778153139 | 5° C | 91% | 1013 hPa | 0 mm | - | 62 W/m² | - |
| 1778152835 | 4.44° C | 92% | 1013 hPa | 0 mm | - | 56 W/m² | - |
| 1778152533 | 3.89° C | 92% | 1013 hPa | 0 mm | - | 50 W/m² | - |
| 1778152229 | 3.33° C | 95% | 1013 hPa | 0 mm | - | 56 W/m² | - |
| 1778151926 | 2.78° C | 95% | 1012.8 hPa | 0 mm | - | 48 W/m² | - |
| 1778151622 | 2.78° C | 95% | 1012.7 hPa | 0 mm | - | 32 W/m² | - |
| 1778151320 | 2.78° C | 95% | 1012.8 hPa | 0 mm | - | 27 W/m² | - |
| 1778151015 | 2.22° C | 95% | 1012.8 hPa | 0 mm | - | 23 W/m² | - |
| 1778150713 | 2.22° C | 95% | 1012.7 hPa | 0 mm | - | 21 W/m² | - |
| 1778150409 | 1.67° C | 95% | 1012.8 hPa | 0 mm | - | 17 W/m² | - |
| 1778150105 | 2.22° C | 95% | 1012.5 hPa | 0 mm | - | 14 W/m² | - |
| 1778149802 | 2.22° C | 95% | 1012.7 hPa | 0 mm | - | 10 W/m² | - |
| 1778149498 | 2.22° C | 95% | 1012.7 hPa | 0 mm | - | 8 W/m² | - |
| 1778149195 | 2.22° C | 95% | 1012.7 hPa | 0 mm | - | 6 W/m² | - |
| 1778148890 | 2.78° C | 95% | 1012.5 hPa | 0 mm | - | 3 W/m² | - |
| 1778148587 | 2.78° C | 95% | 1012.7 hPa | 0 mm | - | 2 W/m² | - |
| 1778148284 | 3.33° C | 95% | 1012.4 hPa | 0 mm | - | 1 W/m² | - |
| 1778147982 | 2.78° C | 94% | 1012.5 hPa | 0 mm | - | 0 W/m² | - |
| 1778147680 | 2.78° C | 94% | 1012.4 hPa | 0 mm | - | 0 W/m² | - |
| 1778147376 | 2.78° C | 94% | 1012.5 hPa | 0 mm | - | 0 W/m² | - |
| 1778147072 | 2.78° C | 94% | 1012.6 hPa | 0 mm | - | 0 W/m² | - |
| 1778146770 | 3.33° C | 94% | 1012.4 hPa | 0 mm | - | 0 W/m² | - |
| 1778146467 | 3.33° C | 94% | 1012.4 hPa | 0 mm | - | 0 W/m² | - |
| 1778146166 | 3.33° C | 94% | 1012.4 hPa | 0 mm | - | 0 W/m² | - |
| 1778145862 | 3.89° C | 94% | 1012.5 hPa | 0 mm | - | 0 W/m² | - |
* Rain latest hour (hover to see other rain measurements)
** Current wind speed in m/s (hover to see current wind gust speed)